Terminal Aerodrome Forecast
Issued by NWS Greer, SC

Home | Current Version | Previous Version | Text Only | Print | Product List | Glossary On
Versions: 1 2 3 4 5 6 7 8 9 10 11 12 13 14 15 16 17 18 19 20 21 22 23 24 25 26
000
FTUS42 KGSP 211610 AAA
TAFCLT
TAF AMD
KCLT 211610Z 2116/2212 30003KT P6SM SCT250
     FM211700 22005KT P6SM FEW060
     FM220100 19004KT P6SM SCT060=

USA.gov is the U.S. government's official web portal to all federal, state and local government web resources and services.